Location: Bidart
(43.4376°N, 1.5913°W)
Time: 08:37:36
(UTC+00:00)

USA 229 DEB - Pass Details

Date: 24 April 2026
Orbit: 844 x 1364 km, 63.4° (Epoch: 10 January)

Event Time Altitude Azimuth Distance (km) Brightness Sun altitude
Rises 19:45:33 0° 309° (NW) 3,748 8.6 -8.4°
Reaches altitude 10° 19:49:33 10° 333° (NNW) 2,909 6.9 -9.1°
Maximum altitude 19:53:14 15° 5° (N) 2,672 6.1 -9.7°
Drops below altitude 10° 19:57:07 10° 37° (NE) 3,115 6.1 -10.3°
Sets 20:01:41 0° 60° (ENE) 4,191 6.5 -11.0°
